Rbgn^[z[y[W
メイン
   新天体発見情報
     Comet C/2018 DO4 (Lemmon)
投稿するにはまず登録を

スレッド表示 | 新しいものから 前のトピック | 次のトピック | 下へ
投稿者 スレッド
佐藤裕久
投稿日時: 2019-10-23 16:30
モデレータ
登録日: 2005-6-12
居住地: 日本
投稿: 2505
オンライン
Comet C/2018 DO4 (Lemmon)

昨年2月、G. J. LeonardがMt Lemmon サーベイの1.5-m 反射望遠鏡で得たCCD画像から小惑星状
の天体を見つけていた(MPEC 2018-F13に小惑星の仮符号が発表されていた)。
L. Buzz (Varese, イタリア, 8月30.1日UT、0.60-m f/4.6 反射望遠鏡:スタックイメージは15"の
コマとp.a. 282°に少なくとも30"の尾が見える)や佐藤英貴氏(東京都文京区, iTelescope天文台,
9月4.47日UT、60秒露出6枚のスタック, 0.43-m f/6.8 アストログラフ, Mayhill近郊, 
ニューメキシコ州, 遠隔操作:集光した20" のコマとp.a.260°〜300°に向かって約40" の扇型の
ような尾が見える。11".5の円形範囲で測定した光度は16.1等であった)らCCD位置観測者によって
彗星状であると観測された。また、中野主一氏 (兵庫県洲本市)は、水野義兼氏(岐阜県可児市:9月
9.73日、光度16.8等、p.a. 270°に0.5°の尾が見える)の報告を伝達した。

発見位置は次のとおり、

     2018 UT             R.A. (2000) Decl.       Mag.   Observer
     Feb. 25.31328   12 43 55.51   +19 42 43.9   20.6   Leonard
          25.31843   12 43 55.22   +19 42 46.7   21.3     "
          25.32358   12 43 54.90   +19 42 50.0   21.3     "
          25.32874   12 43 54.62   +19 42 53.7   21.0     "

MPCの楕円軌道要素と位置推算表は次のとおり、

Orbital elements:
    C/2018 DO4 (Lemmon)                                                         
Epoch 2019 Aug. 25.0 TT = JDT 2458720.5                                         
T 2019 Aug. 18.40395 TT                                 Williams                
q   2.4059693            (2000.0)            P               Q                  
n   0.00749469     Peri.  175.97236     +0.25993337     +0.91236540             
a  25.8603068      Node   251.13292     +0.87634537     -0.08534024             
e   0.9069628      Incl.  160.47470     +0.40552859     -0.40038285             
P 132                                                                           
From 424 observations 2016 Apr. 5-2019 Oct. 6, mean residual 0".4.              
                                                                                
    C/2018 DO4 (Lemmon)                                                         
Epoch 2019 Apr. 27.0 TT = JDT 2458600.5                                         
T 2019 Aug. 18.41784 TT                                 Williams                
q   2.4059335            (2000.0)            P               Q                  
n   0.00749595     Peri.  175.97717     +0.26001575     +0.91234359             
a  25.8574083      Node   251.13257     +0.87633690     -0.08542112             
e   0.9069538      Incl.  160.47496     +0.40549408     -0.40041529             
P 131                                                                           
From 424 observations 2016 Apr. 5-2019 Oct. 6, mean residual 0".4.              
                                                                                
Ephemeris:
Date    TT    R. A. (2000) Decl.     Delta      r    Elong.  Phase   m1
2019 09 06    06 07 54.2 +22 33 37   2.5452  2.4140    71.0    23.3  16.9
...
2019 09 21    05 50 57.7 +20 27 24   2.2223  2.4319    89.6    24.4  16.6
...
2019 09 29    05 37 04.5 +18 59 03   2.0526  2.4456   100.7    23.7  16.4
...
2019 10 05    05 23 52.8 +17 38 53   1.9323  2.4577   109.7    22.5  16.3
2019 10 06    05 21 25.7 +17 24 09   1.9132  2.4599   111.3    22.3  16.3
2019 10 07    05 18 54.1 +17 08 59   1.8943  2.4621   112.9    22.0  16.3
...
2019 10 13    05 02 08.0 +15 28 27   1.7887  2.4762   122.8    19.8  16.2
...
2019 10 21    04 35 30.3 +12 46 49   1.6744  2.4973   137.1    15.8  16.1
...
2019 11 05    03 35 27.7 +06 29 18   1.5776  2.5437   163.4     6.4  16.0

     The first report that 2018 DO4 might be a comet was received from R. Haver
(157, Aug. 29) who reported a coma and a faint 27" tail, although the field was
very crowded.  Other reports of cometary activity are tabulated below:

OC  Date     Reporter       Coma            Tail                     Stack
I89 20190831 H. Sato        8", condensed   25" in P.A. 300           9 x 60s
H21 20190904 R. Holmes      elongated       50" in P.A. 285, broad   15 x 90s
568 20190902 M. Micheli                     ~25" in P.A. ~300, broad 
N55 20190904 T. Chen        7", condensed   ~15" in P.A. 267         12 x 40s
N55 20190905 T. Chen        8"-10"          ~15" in P.A. 251-314     24 x 40s
N55 20190906 T. Chen        7", condensed   ~25" in P.A. ~275        15 x 40s
N55 20190907 T. Chen        8", condensed   ~15" in P.A. ~275        31 x 40s
N55 20190908 T. Chen        9", condensed   ~20" in P.A. ~280         9 x 40s
N55 20190909 T. Chen        10", condensed  ~22" in P.A. ~270        33 x 40s
157 20190908 R. Haver       6".5            45" in P.A. 287          24 x 90s
G40 20190912 G. Gasparovic                  100" in P.A. 295         24 x 50s
H06 20190904 H. Sato        20", condensed  40" in P.A. 260-300       6 x 60s
Q11 20190925 H. Sato        18", condensed  1'.1 in P.A. 290         15 x 60s
Q23 20191002 H. Sato        14", condensed, extended in P.A. 285     15 x 60s
104 20191006 P. Bacci                       70" in P.A. 203          60 x 60s
157 20191006 R. Haver       10".7           44" in P.A. 292          24 x 120s

(CBET 4675、MPEC 2019-T99)

スレッド表示 | 新しいものから 前のトピック | 次のトピック | トップ

投稿するにはまず登録を
 
© 1999 Tsutomu Seki.